COSMOS 970 DEB, 64975

Orbit data source: Space-Track

COSMOS 970 DEB, 64975 is space debris in LEO originally from a launch on Wed, 21 Dec 1977 UTC launched from the Tyuratam Missile And Space Complex (TTMTR). Debris objects in space refer to the collection of defunct objects orbiting the Earth. Examples of debris include non-operational satellites, rocket bodies, and fragments generated from explosions, collisions, or faulty payload assembly.

Loading next visibility...
Identifier
64975, 1977-121CL
Orbit
LEO
Country
Flag of CISCIS
Related business
Manufacturer
Unknown
Mission
Spacecraft
Bus & Motor
Unknown
Mass
Unknown
Launch date (UTC)
1977-12-21 (48 years ago)
Launch vehicle
Unknown
Launch site
Tyuratam Missile And Space Complex (TTMTR)
Object type
Payload
Rocket body
Debris
Shape & HBR
Unknown shape, 1.1 m
Radar Cross Section
Medium (>0.1 m² and <1 m²)

Expand to show TLE details & history
Last TLE update: 1 month ago

TLE from 1 month ago
0 COSMOS 970 DEB
1 64975U 77121CL  26142.92559325  .00001656  00000-0  10166-2 0  9998
2 64975  65.6418 209.8744 0067748 245.3547 114.0464 14.07305490638166
Epoch: 2026-05-22T22:12Z
TLE epoch observation values (Epoch: 2026-05-22T22:12:51.256Z)
Latitude
-0.00009°
Longitude
-3.88865°
Altitude
890.892 km
Speed
7.397 km/s
True Right ascension
13h 59m 29s
True Declination
0° 00' 00"
Sunlit
Object was in full shadow at epoch
Visualization orbit readout
Latitude
Unknown
Longitude
Unknown
Altitude
Unknown
Speed
Unknown
Apparent Right ascension
Unknown
Apparent Declination
Unknown
Sunlit
N/A
Visualization observer readout
Local Sidereal Time
07:13:41
Azimuth
Unknown
Elevation
Unknown
Doppler factor
Unknown
Orbital elements
Apogee altitude
916.209 km
Perigee altitude
818.038 km
Semi-major axis
7,245.261 km
Eccentricity
0.00677
Inclination
65.6418°
RAAN
209.8744°
Arg. of periapsis
245.3547°
True anomaly
114.75291°
Mean anomaly
114.0464°
Eccentric anomaly
114.3999°
Mean motion
3.51935 °/min
Orbital period
102.29 mins
BSTAR
0.0010166
Loading maneuver chart data...
Computing Atmospheric mass density...
Loading historical data...
Loading historical data...
Loading historical data...
Loading historical data...
Loading historical data...
Loading historical data...
Loading historical data...

Documentation

Showing up to 5 results
|